#timestamp,LO_Frequency,Hit,StdDev 
1648036815.3,286047001.1,N
1648036835.2,286046999.4,N
1648036855.9,286046998.3,N
1648036875.7,286047002.8,N
1648036895.6,286047000.3,N
1648036915.4,286047002.4,N
1648036935.2,286047000.2,N
1648036955.1,286046998.5,N
1648036956.0,286046998.5,N
1648036975.8,286047000.3,N
1648036995.7,286046999.4,N
1648037015.5,286047001.2,N
1648037035.3,286047000.6,N
1648037055.2,286047000.9,N
1648037075.0,286046998.6,N
1648037075.9,286046998.6,N
1648037095.8,286046998.4,N
1648037115.6,286046999.1,N
1648037135.4,286046999.0,N
1648037155.3,286047000.8,N
1648037175.1,286047000.2,N
1648037195.9,286047000.5,N
1648037215.7,286047001.0,N
1648037235.5,286047001.2,N
1648037255.4,286046998.3,N
1648037275.2,286047000.6,N
1648037295.0,286046998.2,N
1648037295.9,286046998.2,N
1648037315.8,286046998.6,N
1648037335.6,286046996.9,N
1648037355.5,286046995.6,Y
1648037375.3,286046995.6,P
1648037395.1,286046996.4,N
1648037415.9,286046997.9,N
1648037435.7,286046997.5,N
1648037455.6,286046996.7,N
1648037475.4,286046997.6,N
1648037495.2,286046999.2,N
1648037515.1,286046998.1,N
1648037516.0,286046998.1,N
1648037535.8,286046999.6,N
1648037555.7,286046996.7,N
1648037575.5,286046998.4,N
1648037595.3,286046998.8,N
1648037615.2,286046998.2,N
1648037635.0,286046999.1,N
1648037635.9,286046999.1,N
1648037655.7,286046996.8,N
1648037675.6,286046999.4,N
1648037695.4,286047001.1,N
1648037715.3,286046998.7,N
1648037735.1,286046999.5,N
1648037736.0,286046999.5,N
1648037755.8,286046998.9,N
1648037775.7,286046999.6,N
1648037795.5,286046996.9,N
1648037815.3,286047000.7,N
1648037835.2,286046998.3,N
1648037855.0,286046999.4,N
1648037855.9,286046999.4,N
1648037875.8,286046999.4,N
1648037895.6,286046996.5,N
1648037915.4,286046998.7,N
1648037935.3,286046998.3,N
1648037955.1,286046996.9,N
1648037975.9,286047000.5,N
1648037995.7,286046998.2,N
1648038015.5,286047000.0,N
1648038035.4,286047000.2,N
1648038055.2,286047001.2,N
1648038075.1,286047000.8,N
1648038076.0,286047000.8,N
1648038095.8,286046999.8,N
1648038115.6,286046998.9,N
1648038135.5,286046996.6,N
1648038155.3,286046996.7,N
1648038175.1,286046999.5,N
1648038195.9,286046998.4,N
1648038215.7,286046997.2,N
1648038235.6,286046994.9,Y
1648038255.4,286047001.2,P
1648038275.2,286046999.9,N
1648038295.1,286047002.7,N
1648038296.0,286047002.7,N
1648038315.8,286047000.1,N
1648038335.7,286047000.8,N
1648038355.5,286047000.3,N
1648038375.3,286047000.4,N
1648038395.2,286047000.4,N
1648038415.9,286047000.1,N
1648038435.7,286047002.2,N
1648038455.6,286046999.8,N
1648038475.4,286046998.2,N
1648038495.3,286047000.5,N
1648038515.1,286046999.9,N
1648038516.0,286046999.9,N
1648038535.8,286046999.9,N
1648038555.7,286047000.2,N
1648038575.5,286047000.5,N
1648038595.3,286047000.7,N
1648038615.2,286046998.4,N
1648038635.0,286046998.9,N
1648038635.9,286046998.9,N
1648038655.8,286046998.9,N
1648038675.6,286046996.8,N
1648038695.4,286046996.8,N
1648038715.3,286046999.6,N
1648038735.1,286046996.7,N
1648038755.8,286046997.9,N
1648038775.7,286046993.7,Y
1648038795.5,286046991.8,P
1648038815.4,286046993.1,N
1648038835.2,286046992.3,N
1648038855.0,286046994.2,N
1648038855.9,286046994.2,N
1648038875.8,286046993.4,N
1648038895.6,286046994.5,N
1648038915.5,286046990.3,Y
1648038935.3,286046997.9,P
1648038955.1,286046994.0,P
1648038975.9,286046993.8,P
1648038995.7,286046996.2,N
1648039015.5,286046996.4,N
1648039035.4,286046994.1,Y
1648039055.2,286047000.0,P
1648039075.1,286047001.2,N
1648039076.0,286047001.2,N
1648039095.8,286046998.5,N
1648039115.6,286046998.3,N
1648039135.5,286046997.2,N
1648039155.3,286046996.6,N
1648039175.1,286046999.1,N
1648039195.9,286046999.9,N
1648039215.7,286047002.8,N
1648039235.6,286047002.4,N
1648039255.4,286047000.2,N
1648039275.2,286046999.9,N
1648039295.1,286047001.0,N
1648039296.0,286047001.0,N
1648039315.8,286046998.3,N
1648039335.7,286046998.3,N
1648039355.5,286046999.5,N
1648039375.3,286046996.8,N
1648039395.2,286046997.7,N
1648039415.0,286046999.0,N
1648039415.9,286046999.0,N
1648039435.7,286046999.2,N
1648039455.6,286046996.8,N
1648039475.4,286046996.9,N
1648039495.3,286046999.6,N
1648039515.1,286046997.7,N
1648039516.0,286046997.7,N
1648039535.8,286046993.7,Y
1648039555.7,286046997.8,P
1648039575.5,286046996.3,P
1648039595.4,286046995.4,P
1648039615.2,286046997.4,N
1648039635.0,286046995.0,Y
1648039635.9,286046995.0,P
1648039655.8,286047002.7,N
1648039675.6,286047000.4,N
1648039695.4,286046999.9,N
1648039715.3,286046998.4,N
1648039735.1,286046998.6,N
1648039755.9,286047002.3,N
1648039775.7,286047001.3,N
1648039795.5,286047002.2,N
1648039815.4,286046999.7,N
1648039835.2,286047000.0,N
1648039855.0,286046998.2,N
1648039855.9,286046998.2,N
1648039875.8,286046998.5,N
1648039895.6,286046998.3,N
1648039915.4,286046998.5,N
1648039935.2,286047001.2,N
1648039955.0,286046996.9,N
1648039955.9,286046996.9,N
1648039975.8,286046997.8,N
1648039995.6,286046996.5,N
1648040015.5,286046998.7,N
1648040035.3,286046998.6,N
1648040055.1,286047000.8,N
1648040075.9,286047002.7,N
1648040095.7,286047002.4,N
1648040115.5,286047002.7,N
1648040135.4,286047000.7,N
1648040155.2,286046998.4,N
1648040175.1,286046998.0,N
1648040176.0,286046998.0,N
1648040195.8,286046995.0,N
1648040215.6,286046997.5,N
1648040235.5,286046997.6,N
1648040255.3,286046996.3,N
1648040275.1,286046999.3,N
1648040295.9,286046998.5,N
1648040315.7,286046999.6,N
1648040335.6,286046997.4,N
1648040355.4,286046995.1,N
1648040375.2,286046997.3,N
1648040395.1,286046999.1,N
1648040396.0,286046999.1,N
